Hourly Weather Bolshie Peti

Today, 18 June, Friday

Time Temperature Precipitation Wind Pressure Humidity
00:00 +16°C° 0 mm 2 mps 761 mmHg 70%
01:00 +16°C° 0 mm 2 mps 761 mmHg 72%
02:00 +15°C° 0 mm 2 mps 761 mmHg 75%
03:00 +15°C° 0 mm 2 mps 761 mmHg 75%
04:00 +16°C° 0 mm 2 mps 761 mmHg 76%
05:00 +16°C° 0 mm 1 mps 761 mmHg 77%
06:00 +18°C° 0 mm 2 mps 761 mmHg 70%
07:00 +20°C° 0 mm 2 mps 761 mmHg 63%
08:00 +23°C° 0 mm 2 mps 761 mmHg 55%
09:00 +25°C° 0 mm 3 mps 761 mmHg 51%
10:00 +26°C° 0 mm 3 mps 761 mmHg 46%
11:00 +28°C° 0 mm 3 mps 761 mmHg 41%
12:00 +28°C° 0 mm 3 mps 760 mmHg 39%
13:00 +29°C° 0 mm 3 mps 760 mmHg 38%
14:00 +30°C° 0 mm 3 mps 760 mmHg 36%
15:00 +30°C° 0 mm 3 mps 759 mmHg 38%
16:00 +29°C° 0 mm 3 mps 759 mmHg 41%
17:00 +29°C° 0 mm 3 mps 759 mmHg 43%
18:00 +27°C° 0 mm 2 mps 759 mmHg 53%
19:00 +25°C° 0 mm 2 mps 759 mmHg 63%
20:00 +23°C° 0 mm 1 mps 759 mmHg 73%
21:00 +21°C° 0 mm 2 mps 759 mmHg 76%
22:00 +20°C° 0 mm 2 mps 759 mmHg 79%
23:00 +19°C° 0 mm 2 mps 760 mmHg 82%

Tomorrow, 19 June, Saturday

Time Temperature Precipitation Wind Pressure Humidity
00:00 +18°C° 0 mm 2 mps 760 mmHg 85%
01:00 +18°C° 0 mm 2 mps 760 mmHg 88%
02:00 +17°C° 0 mm 2 mps 760 mmHg 91%
03:00 +17°C° 0 mm 2 mps 760 mmHg 89%
04:00 +18°C° 0 mm 2 mps 760 mmHg 88%
05:00 +18°C° 0 mm 2 mps 760 mmHg 87%
06:00 +20°C° 0 mm 2 mps 760 mmHg 79%
07:00 +23°C° 0 mm 2 mps 760 mmHg 71%
08:00 +25°C° 0 mm 3 mps 760 mmHg 64%
09:00 +26°C° 0 mm 3 mps 760 mmHg 57%
10:00 +28°C° 0 mm 3 mps 760 mmHg 51%
11:00 +29°C° 0 mm 3 mps 759 mmHg 45%
12:00 +29°C° 0 mm 3 mps 759 mmHg 43%
13:00 +30°C° 0 mm 3 mps 759 mmHg 40%
14:00 +31°C° 0 mm 3 mps 759 mmHg 38%
15:00 +30°C° 0 mm 3 mps 758 mmHg 40%
16:00 +30°C° 0 mm 2 mps 758 mmHg 41%
17:00 +30°C° 0 mm 2 mps 758 mmHg 43%
18:00 +28°C° 0 mm 2 mps 758 mmHg 53%
19:00 +26°C° 0 mm 1 mps 758 mmHg 63%
20:00 +24°C° 0 mm 1 mps 758 mmHg 72%
21:00 +23°C° 0 mm 1 mps 758 mmHg 75%
22:00 +22°C° 0 mm 1 mps 758 mmHg 78%
23:00 +20°C° 0 mm 2 mps 758 mmHg 80%

Day after tomorrow, 20 June, Sunday

Time Temperature Precipitation Wind Pressure Humidity
00:00 +19°C° 0 mm 2 mps 758 mmHg 83%
01:00 +19°C° 0 mm 2 mps 758 mmHg 87%
02:00 +18°C° 0 mm 2 mps 758 mmHg 90%
03:00 +19°C° 0 mm 2 mps 758 mmHg 89%
04:00 +19°C° 0 mm 2 mps 758 mmHg 88%
05:00 +20°C° 0 mm 2 mps 758 mmHg 87%
06:00 +21°C° 0 mm 2 mps 758 mmHg 80%
07:00 +24°C° 0 mm 2 mps 758 mmHg 72%
08:00 +26°C° 0 mm 3 mps 758 mmHg 64%
09:00 +27°C° 0 mm 3 mps 758 mmHg 59%
10:00 +29°C° 0 mm 3 mps 758 mmHg 54%
11:00 +30°C° 0 mm 3 mps 758 mmHg 49%
12:00 +31°C° 0 mm 3 mps 757 mmHg 46%
13:00 +31°C° 0 mm 3 mps 757 mmHg 43%
14:00 +33°C° 0 mm 3 mps 757 mmHg 40%
15:00 +33°C° 0 mm 3 mps 756 mmHg 41%
16:00 +32°C° 0 mm 2 mps 756 mmHg 43%
17:00 +31°C° 0 mm 2 mps 756 mmHg 45%
18:00 +30°C° 0 mm 2 mps 756 mmHg 54%
19:00 +28°C° 0 mm 1 mps 756 mmHg 62%
20:00 +26°C° 0 mm 1 mps 756 mmHg 70%
21:00 +25°C° 0.2 mm 1 mps 756 mmHg 75%
22:00 +24°C° 0.2 mm 1 mps 756 mmHg 80%
23:00 +22°C° 0.2 mm 1 mps 756 mmHg 84%

21 June, Monday

Time Temperature Precipitation Wind Pressure Humidity
00:00 +22°C° 0.8 mm 1 mps 756 mmHg 88%
01:00 +21°C° 0.8 mm 1 mps 757 mmHg 91%
02:00 +21°C° 0.8 mm 1 mps 757 mmHg 94%
03:00 +21°C° 0 mm 1 mps 757 mmHg 94%
04:00 +22°C° 0 mm 1 mps 757 mmHg 94%
05:00 +22°C° 0 mm 1 mps 757 mmHg 93%
06:00 +24°C° 0 mm 2 mps 757 mmHg 86%
07:00 +25°C° 0 mm 2 mps 757 mmHg 78%
08:00 +27°C° 0 mm 2 mps 757 mmHg 70%
09:00 +28°C° 0 mm 2 mps 756 mmHg 63%
10:00 +30°C° 0 mm 2 mps 756 mmHg 57%
11:00 +31°C° 0 mm 2 mps 756 mmHg 50%
12:00 +33°C° 0 mm 3 mps 756 mmHg 47%
13:00 +33°C° 0 mm 3 mps 756 mmHg 44%
14:00 +34°C° 0 mm 3 mps 755 mmHg 41%
15:00 +34°C° 0 mm 3 mps 755 mmHg 43%
16:00 +33°C° 0 mm 3 mps 755 mmHg 44%
17:00 +33°C° 0 mm 3 mps 755 mmHg 46%
18:00 +30°C° 0 mm 2 mps 755 mmHg 55%
19:00 +28°C° 0 mm 2 mps 755 mmHg 64%
20:00 +26°C° 0 mm 2 mps 754 mmHg 72%
21:00 +25°C° 0 mm 2 mps 755 mmHg 74%
22:00 +24°C° 0 mm 2 mps 755 mmHg 75%
23:00 +23°C° 0 mm 2 mps 755 mmHg 76%

22 June, Tuesday

Time Temperature Precipitation Wind Pressure Humidity
00:00 +21°C° 0 mm 2 mps 755 mmHg 76%
01:00 +20°C° 0 mm 2 mps 755 mmHg 77%
02:00 +20°C° 0 mm 2 mps 755 mmHg 78%
03:00 +20°C° 0 mm 2 mps 755 mmHg 80%
04:00 +20°C° 0 mm 2 mps 755 mmHg 82%
05:00 +21°C° 0 mm 2 mps 755 mmHg 84%
06:00 +24°C° 0 mm 3 mps 754 mmHg 77%
07:00 +26°C° 0 mm 3 mps 754 mmHg 71%
08:00 +27°C° 0 mm 4 mps 754 mmHg 64%
09:00 +29°C° 0 mm 4 mps 754 mmHg 59%
10:00 +30°C° 0 mm 4 mps 754 mmHg 54%
11:00 +32°C° 0 mm 5 mps 754 mmHg 49%
12:00 +33°C° 0 mm 4 mps 754 mmHg 47%
13:00 +33°C° 0 mm 4 mps 754 mmHg 45%
14:00 +34°C° 0 mm 4 mps 754 mmHg 43%
15:00 +34°C° 0 mm 4 mps 754 mmHg 45%
16:00 +33°C° 0 mm 4 mps 753 mmHg 47%
17:00 +33°C° 0 mm 3 mps 753 mmHg 49%
18:00 +31°C° 0 mm 3 mps 753 mmHg 56%
19:00 +29°C° 0 mm 2 mps 754 mmHg 64%
20:00 +27°C° 0 mm 1 mps 754 mmHg 72%
21:00 +26°C° 0 mm 2 mps 754 mmHg 74%
22:00 +25°C° 0 mm 2 mps 754 mmHg 77%
23:00 +24°C° 0 mm 2 mps 754 mmHg 79%

23 June, Wednesday

Time Temperature Precipitation Wind Pressure Humidity
00:00 +24°C° 0 mm 2 mps 754 mmHg 82%
01:00 +23°C° 0 mm 2 mps 754 mmHg 84%
02:00 +23°C° 0 mm 2 mps 755 mmHg 87%
03:00 +23°C° 0 mm 2 mps 755 mmHg 87%
04:00 +23°C° 0 mm 2 mps 755 mmHg 86%
05:00 +24°C° 0 mm 2 mps 755 mmHg 86%
06:00 +25°C° 0 mm 2 mps 755 mmHg 79%
07:00 +27°C° 0 mm 3 mps 755 mmHg 71%
08:00 +29°C° 0 mm 3 mps 755 mmHg 64%
09:00 +30°C° 0 mm 3 mps 755 mmHg 55%
10:00 +33°C° 0 mm 4 mps 755 mmHg 47%
11:00 +34°C° 0 mm 4 mps 755 mmHg 38%
12:00 +35°C° 0 mm 4 mps 755 mmHg 36%
13:00 +35°C° 0 mm 4 mps 755 mmHg 35%
14:00 +36°C° 0 mm 3 mps 755 mmHg 33%
15:00 +36°C° 0 mm 3 mps 755 mmHg 34%
16:00 +36°C° 0 mm 3 mps 755 mmHg 36%
17:00 +36°C° 0 mm 2 mps 755 mmHg 37%
18:00 +32°C° 0 mm 2 mps 755 mmHg 48%
19:00 +30°C° 0 mm 2 mps 754 mmHg 58%
20:00 +28°C° 0 mm 1 mps 754 mmHg 68%
21:00 +27°C° 0 mm 1 mps 755 mmHg 70%
22:00 +26°C° 0 mm 2 mps 755 mmHg 72%
23:00 +25°C° 0 mm 2 mps 755 mmHg 74%
Show more